Location: Broekland
(52.3610°N, 6.2005°E)
Time: 15:09:09
(UTC+00:00)

Cosmos 44 - Visible Passes

Search period start: 09 February 2026 00:00
Search period end: 19 February 2026 00:00
Orbit: 570 x 780 km, 65.1° (Epoch: 9 February)

Date Brightness Start Highest point End Pass type
(mag) Time Alt. Az. Time Alt. Az. Time Alt. Az.
9 Feb 5.2 17:57:01 10° WNW 18:01:04 23° NNW 18:05:17 10° NE visible
9 Feb 5.2 19:39:51 10° NW 19:43:42 22° N 19:43:42 22° N visible
9 Feb 6.2 21:21:16 10° NW 21:21:59 14° NNW 21:21:59 14° NNW visible
10 Feb 5.3 18:33:22 10° NW 18:37:13 20° N 18:39:49 15° NNE visible
10 Feb 5.4 20:15:25 10° NW 20:18:06 23° N 20:18:06 23° N visible
11 Feb 5.1 17:26:30 10° WNW 17:30:33 23° NNW 17:34:46 10° NE visible
11 Feb 5.1 19:09:20 10° NW 19:13:23 22° N 19:14:14 21° NNE visible
11 Feb 5.7 20:50:45 10° NW 20:52:31 20° NNW 20:52:31 20° NNW visible
12 Feb 5.3 18:02:51 10° NW 18:06:42 20° N 18:10:21 11° NE visible
12 Feb 5.0 19:44:54 10° NW 19:48:39 27° N 19:48:39 27° N visible
12 Feb 6.2 21:26:01 10° NW 21:26:57 15° NW 21:26:57 15° NW visible
13 Feb 5.1 18:38:48 10° NW 18:42:52 22° N 18:44:47 18° NE visible
13 Feb 5.1 20:20:13 10° NW 20:23:05 28° NNW 20:23:05 28° NNW visible
14 Feb 5.2 17:32:19 10° NW 17:36:11 20° N 17:40:09 10° NE visible
14 Feb 4.7 19:14:21 10° NW 19:18:55 28° NNE 19:19:14 28° NNE visible
14 Feb 5.5 20:55:29 10° NW 20:57:32 24° NW 20:57:32 24° NW visible
15 Feb 5.1 18:08:16 10° NW 18:12:20 22° N 18:15:24 14° NE visible
15 Feb 4.5 19:49:41 10° NW 19:53:42 38° N 19:53:42 38° N visible
15 Feb 6.1 21:30:52 10° NW 21:32:00 17° NW 21:32:00 17° NW visible
16 Feb 4.7 18:43:49 10° NW 18:48:23 28° NNE 18:49:54 24° NE visible
16 Feb 4.7 20:24:57 10° NW 20:28:12 38° NNW 20:28:12 38° NNW visible
17 Feb 5.0 17:37:44 10° NW 17:41:49 22° N 17:45:58 10° ENE visible
17 Feb 4.0 19:19:09 10° NW 19:24:13 42° NE 19:24:26 42° NE visible
17 Feb 5.4 21:00:20 10° NW 21:02:45 26° WNW 21:02:45 26° WNW visible
18 Feb 4.7 18:13:17 10° NW 18:17:52 28° NNE 18:20:43 18° ENE visible
18 Feb 3.8 19:54:23 10° NW 19:59:01 63° NNW 19:59:01 63° NNW visible
18 Feb 6.1 21:36:07 10° WNW 21:37:19 15° WNW 21:37:19 15° WNW visible
